CZ-6A DEB

Satellite information

Favourite Embed

Satellite Type and Status

DEBRISIN ORBIT

Key statistics

Satellite CZ-6A DEB at a glance.

Uptime

910

Days in orbit

Revolutions

≈ 14.1

Per day

Orbit

SSO

Sun Synchronous Orbit

Inclination

98.8

Latest

Satellite identification and parameters

Extended collection of information and parameters for CZ-6A DEB.

Object identification

Identified? True

Debris? True

Object name: CZ-6A DEB

International designator: 2022-151AFL

Object number (NORAD): 56636

Object ID (CCSDS): 56636

Country: PEOPLES REPUBLIC OF CHINA (PRC)

Current information (Y/N): Y

RCS size: SMALL

Orbital parameters

Period: 102.051 minutes

Inclination: 98.8167 deg

SMA: 7233.866 km

Apoapsis: 911.626 km

Periapsis: 799.837 km

RAAN: 126.7511 deg

Eccentricy: 0.0077268

Argument of periapsis: 78.6605 deg

Mean anomaly: 282.3235 deg

Mean motion: 14.1106503 rev/day

Mean motion (dot): 0.0000202 rev/day2

B* drag term: 0.0011148 1/REarth

Two-line elements (TLE)

Creation date: May 9, 2025, 2:46 a.m.

Reference frame: TEME

Reference center: EARTH

Epoch: May 8, 2025, 5:56 a.m. UTC

TLE line 0: 0 CZ-6A DEB

TLE line 1: 1 56636U 22151AFL 25128.24785367 .00002020 00000-0 11148-2 0 9998

TLE line 2: 2 56636 98.8167 126.7511 0077268 78.6605 282.3235 14.11065030109761

Live tracking on map

Real-time ground track for satellite CZ-6A DEB.

In-orbit conjunctions

A list of the most updated potential collisions computed for object CZ-6A DEB.

Target Orbit TCA Probability of collision Miss distance Type
SL-3 R/B LEO 2025-03-09 05:32:20 0.0003860338 266.0 (m) ROCKET BODY
CZ-6A DEB LEO 2025-02-19 18:49:49 0.0001237362 515.0 (m) DEBRIS
SL-3 R/B LEO 2024-10-03 13:19:43 0.0001265571 643.0 (m) ROCKET BODY
BREEZE-KM R/B SSO 2024-09-06 04:45:01 0.0002450747 527.0 (m) ROCKET BODY

Associated space launch

Chinese satellite reported for atmospheric/ocean/environmental/spatial parameter research purposes, details TBD.

CZ-6A DEB was lifted into orbit during the mission ‘Long March 6A | Yunhai 3’, on board a Long March 6A space rocket.

The launch took place on Nov. 11, 2022, 10:52 p.m. from Launch Complex 9A.

For more information about the launch, click the button.

Launch to space Long March 6A | Yunhai 3
Long March 6A | Yunhai 3

Agency: N/A

Status: Launch Successful

Launch date: Nov. 11, 2022, 10:52 p.m. UTC

Rocket: Long March 6A

Launch pad: Launch Complex 9A

Location: Taiyuan Satellite Launch Center, People's Republic of China

...

Latest news about this satellite

There are no fresh news available about this satellite. Check back as we update our databases every day.


Newsletter sign-up

Weekly statistics, charts and insights to help you stay on top of the space industry.